Flag for Canada Weather past 2 weeks in Denare Beach, Saskatchewan, Canada

Now
41 °F

Passing clouds.


Feels Like: 35 °F
Forecast: 40 / 51 °F
Wind: 10 mph from Southeast

Location: The Pas

Current Time: May 28, 2015 at 1:28:40 AM

Latest Report: May 28, 2015 at 1:00 AM


Visibility: 15 mi

Pressure: 30.01 "Hg

Humidity: 66%

Dew point: 30 °F

Location of Denare BeachLocation

Historic Weather in Denare Beach — Graph

°F

Denare Beach temperature yesterday

Maximum temperature yesterday: 61 °F (at 4:00 PM)
Minimum temperature yesterday: 34 °F (at 6:00 AM)
Average temperature yesterday: 48 °F

Past Weeks' High & Low Weather Summary

 TemperatureHumidityPressure
High81 °F (May 22, 7:00 PM)93% (May 14, 7:00 AM)30.57 "Hg (May 14, 7:00 AM)
Low27 °F (May 17, 6:00 AM)14% (May 22, 7:00 PM)29.67 "Hg (May 26, 12:00 AM)
Average53 °F49%30.11 "Hg
* Reported Midnight between May 12 and May 13 — Midnight between May 27 and May 28, Denare Beach, Weather by CustomWeather, © 2015

Note: Actual official high and low records may vary slightly from our data, if they occured in-between our weather recording intervals... More about our weather records

Advertising

Denare Beach weather history for previous 24 hours

 ConditionsComfort  
Time TempWeatherWind HumidityBarometerVisibility
12:00 AM
Thu, May 28
41 °FPassing clouds.8 mph70%30.04 "Hg15 mi
11:00 PM
Wed, May 27
43 °FPassing clouds.8 mph66%30.07 "Hg15 mi
10:00 PM48 °FScattered clouds.8 mph54%30.07 "Hg15 mi
9:00 PM54 °FScattered clouds.12 mph41%30.07 "Hg15 mi
8:00 PM57 °FPartly sunny.15 mph33%30.07 "Hg15 mi
7:00 PM57 °FPartly sunny.8 mph33%30.08 "Hg15 mi
6:00 PM59 °FScattered clouds.9 mph31%30.09 "Hg15 mi
5:00 PM59 °FPassing clouds.7 mph23%30.11 "Hg15 mi
4:00 PM61 °FPassing clouds.10 mph27%30.12 "Hg15 mi
3:00 PM59 °FPassing clouds.6 mph29%30.13 "Hg15 mi
2:00 PM57 °FPassing clouds.10 mph31%30.14 "Hg15 mi
1:00 PM54 °FPassing clouds.9 mph35%30.13 "Hg15 mi
12:00 PM52 °FPassing clouds.N/AN/A30.14 "Hg15 mi
11:00 AM54 °FScattered clouds.N/AN/A30.15 "Hg15 mi
10:00 AM52 °FScattered clouds.5 mph41%30.16 "Hg15 mi
9:00 AM48 °FPassing clouds.9 mph54%30.15 "Hg15 mi
8:00 AM45 °FPassing clouds.8 mph76%30.15 "Hg15 mi
7:00 AM39 °FPassing clouds.5 mph93%30.14 "Hg15 mi
6:48 AM37 °FPassing clouds.6 mph93%30.14 "Hg15 mi
6:00 AM34 °FLight fog.3 mph93%30.12 "Hg15 mi
5:00 AM36 °FClear.3 mph93%30.11 "Hg15 mi
4:00 AM36 °FClear.3 mph93%30.09 "Hg15 mi
3:00 AM36 °FClear.No wind93%30.08 "Hg15 mi
2:00 AM39 °FClear.2 mph93%30.06 "Hg15 mi
1:00 AM45 °FPassing clouds.3 mph81%30.05 "Hg15 mi
Weather by CustomWeather, © 2015

See weather overviewHow to use our weather pages